Location: Hodgeman County Ambulance
(38.0844°N, 99.8949°W)
Time: 15:18:41
(UTC+00:00)

Cosmos 2278 - Pass Details

Date: 27 October 2020
Orbit: 841 x 851 km, 71.1° (Epoch: 03 December)

Event Time Altitude Azimuth Distance (km) Brightness Sun altitude
Rises 12:08:17 0° 334° (NNW) 3,404 6.5 -10.9°
Reaches altitude 10° 12:10:45 10° 331° (NNW) 2,465 5.8 -10.5°
Maximum altitude 12:16:20 64° 252° (WSW) 928 3.7 -9.4°
Drops below altitude 10° 12:21:53 10° 171° (S) 2,450 6.4 -8.3°
Sets 12:24:20 0° 168° (SSE) 3,381 7.1 -7.8°
